Wetbulb
64.39 63.52 63.50 63.90 65.38 66.83 67.82 66.39 68.08 70.31 69.80 69.01 66.85 66.20 66.94 66.83 66.77 67.27 67.50 67.73 66.21 65.09 65.69 68.92 68.13 69.87 69.74 70.42 70.11 70.61 70.98 69.45
61.67 61.76 62.44 64.16 64.48 65.68 67.17 67.59 69.17 68.74 68.83 66.91 64.79 65.04 65.81 66.27 66.09 66.88 66.24 65.72 65.17 63.21 65.63 66.94 66.34 67.82 68.18 68.33 68.79 68.67 69.30 67.66
60.25 60.57 61.92 62.67 62.28 62.47 65.28 65.97 66.63 65.57 64.79 63.05 62.79 63.67 63.48 64.22 65.47 66.79 65.90 64.85 63.01 63.04 63.91 66.24 66.49 67.66 67.09 63.15 65.96 68.23 68.90 67.71
58.36 57.58 57.99 59.17 59.13 59.59 61.66 64.18 63.81 63.53 62.72 61.75 61.63 62.50 63.02 63.64 64.36 64.98 64.87 63.18 62.65 63.14 63.15 65.13 65.99 68.38 67.23 65.59 67.82 67.39 68.27 67.75
56.43 56.80 56.45 57.31 57.69 58.53 58.99 62.56 63.95 63.73 63.14 62.39 61.85 62.24 61.89 61.32 62.67 65.02 65.02 63.64 62.97 62.17 61.04 61.54 65.42 67.19 67.57 68.18 67.23 65.69 67.57 68.74
55.79 55.78 55.44 55.89 56.09 55.83 57.43 58.66 59.87 60.14 62.27 62.41 62.69 63.82 63.46 60.94 60.29 60.00 60.43 62.50 62.48 66.13 66.80 66.26 66.20 67.00 66.76 66.14 66.24 66.81 67.21 65.90
53.76 54.63 54.85 54.89 55.00 54.43 54.41 54.75 56.10 58.22 59.83 61.78 59.22 58.89 60.52 58.00 56.19 56.93 56.74 57.59 58.63 58.80 60.05 59.36 61.83 63.23 62.33 63.06 63.96 64.07 64.45 63.66
53.41 54.05 54.08 53.76 54.07 54.28 53.98 53.98 54.73 56.15 56.47 60.39 58.52 54.83 55.72 54.63 53.49 52.64 53.32 53.89 53.98 53.68 54.39 53.80 55.22 57.78 57.71 59.08 58.70 61.65 62.58 61.69
52.17 52.86 53.12 52.39 51.86 51.56 51.78 51.41 51.70 52.91 53.83 54.48 56.63 52.20 52.13 51.68 50.52 50.18 50.12 52.22 50.89 49.39 49.19 49.52 50.20 51.68 52.41 53.20 55.63 57.44 60.82 59.07
50.37 50.88 51.65 51.44 50.59 50.53 50.25 49.60 49.67 49.93 49.68 49.44 49.90 49.67 49.17 48.80 47.36 47.18 47.90 49.43 49.64 48.61 47.05 47.90 47.47 47.65 47.74 49.15 51.29 53.13 55.20 57.02
48.77 49.83 50.04 50.04 49.53 49.37 48.95 48.56 47.86 47.66 47.20 46.72 46.75 46.51 46.50 44.54 45.03 45.16 45.83 47.82 48.44 48.36 46.85 46.78 46.20 45.81 45.69 46.36 47.89 48.70 49.60 54.23
48.51 49.22 48.75 48.90 48.63 48.81 48.08 47.30 46.43 45.97 45.42 43.93 42.63 41.97 41.56 43.23 42.61 43.16 44.28 46.15 46.64 47.57 46.79 45.90 44.78 44.22 44.29 45.18 48.62 46.57 46.82 47.33
48.48 48.88 47.80 47.73 47.66 46.63 46.48 45.68 45.10 44.55 43.75 43.04 41.89 41.36 41.92 42.45 42.41 42.53 43.00 43.85 45.14 46.43 46.35 45.68 45.11 44.80 45.04 45.29 45.88 45.61 45.74 46.53
47.14 47.45 47.30 46.32 46.08 45.57 44.91 44.18 43.54 43.40 43.32 42.80 41.90 41.12 41.10 41.06 41.19 41.43 42.53 42.60 43.69 45.17 46.08 45.30 45.58 45.49 45.72 46.30 46.42 46.06 46.15 45.75
45.74 44.66 44.23 44.07 43.91 44.18 43.96 42.37 41.88 42.34 42.45 42.38 42.23 41.63 41.09 40.88 41.08 41.30 41.51 42.12 43.05 44.91 44.97 45.35 45.87 46.52 47.54 47.16 46.87 47.49 47.29 46.04
44.33 43.88 42.78 42.49 43.21 42.90 42.64 41.84 41.32 41.93 42.78 42.83 43.41 42.78 42.31 41.89 41.57 41.95 42.30 42.11 43.24 44.88 46.50 46.30 46.95 47.93 49.13 50.17 50.89 51.30 52.21 52.58
43.09 42.94 42.02 41.59 41.59 41.60 41.45 41.55 42.23 42.55 42.26 42.47 42.59 43.01 43.53 42.75 42.86 42.58 43.21 43.95 46.45 47.00 46.70 46.57 47.16 48.29 48.15 48.44 49.66 50.92 51.36 51.16
41.78 41.63 41.46 41.25 40.97 40.90 41.30 42.23 42.33 42.42 42.43 41.85 43.22 43.06 43.96 43.60 44.27 44.26 44.20 44.69 45.31 45.44 45.44 45.56 46.28 47.20 46.70 45.72 46.24 47.58 46.71 46.40
40.57 40.35 40.63 40.29 40.44 40.50 41.76 41.83 41.90 42.43 42.14 42.82 43.04 43.52 43.01 42.54 43.02 44.35 44.28 43.98 46.54 47.99 46.48 45.87 45.85 45.94 45.83 45.63 46.03 46.30 45.03 43.70
40.04 39.96 39.88 39.74 39.53 40.04 40.98 41.48 42.10 42.95 43.11 41.99 41.82 43.69 41.62 43.08 43.76 44.36 44.95 46.93 48.23 48.09 45.99 44.95 45.03 44.96 44.97 45.47 45.46 45.01 44.04 43.11
MSLP
1016.27 1016.66 1016.59 1016.80 1016.76 1016.17 1015.70 1015.64 1015.59 1015.34 1015.39 1015.64 1015.37 1015.03 1015.22 1015.02 1014.85 1013.89 1013.50 1013.64 1014.73 1014.42 1014.49 1014.09 1013.71 1013.12 1012.89 1013.31 1013.52 1013.18 1013.25 1013.25
1017.16 1017.65 1017.75 1017.53 1017.35 1017.02 1016.77 1016.17 1015.72 1015.71 1015.88 1016.05 1015.82 1015.61 1015.64 1015.35 1015.26 1014.79 1014.59 1014.50 1014.55 1014.75 1014.30 1014.10 1013.78 1013.39 1013.09 1013.40 1013.99 1014.20 1013.49 1013.27
1017.95 1018.32 1018.34 1018.20 1017.90 1017.64 1017.27 1016.63 1016.45 1016.51 1016.48 1016.40 1015.94 1015.98 1015.99 1015.91 1015.26 1015.18 1015.09 1015.07 1015.21 1015.02 1014.47 1014.24 1013.77 1013.45 1013.81 1014.33 1014.14 1013.54 1013.21 1013.16
1018.72 1018.60 1018.67 1018.66 1018.76 1018.50 1017.89 1017.39 1017.01 1016.85 1016.83 1016.85 1016.52 1016.53 1016.41 1015.73 1015.93 1015.55 1015.65 1015.80 1015.57 1015.32 1015.09 1015.13 1014.86 1014.33 1014.48 1014.29 1013.96 1013.97 1013.84 1013.77
1019.45 1019.41 1019.22 1019.22 1019.13 1018.86 1018.38 1018.16 1017.89 1017.68 1017.72 1017.56 1017.07 1016.97 1016.65 1016.47 1016.55 1016.37 1016.23 1016.06 1015.77 1015.36 1015.27 1015.41 1014.76 1014.34 1013.92 1013.63 1013.16 1013.16 1013.33 1013.10
1020.14 1020.05 1020.01 1019.98 1019.77 1019.51 1019.38 1018.96 1018.59 1018.44 1018.07 1017.66 1017.38 1017.17 1017.08 1017.20 1017.17 1017.10 1016.74 1016.25 1015.95 1015.39 1015.40 1015.47 1015.17 1014.78 1014.19 1013.96 1013.67 1013.28 1013.20 1013.19
1020.58 1020.55 1020.44 1020.38 1020.21 1019.84 1019.60 1019.42 1018.97 1018.55 1018.28 1018.35 1018.53 1018.34 1018.03 1018.22 1018.12 1017.93 1017.77 1017.42 1017.05 1016.74 1016.40 1016.26 1015.66 1015.14 1014.96 1014.69 1014.27 1013.86 1013.46 1013.32
1020.95 1020.68 1020.35 1020.16 1020.19 1019.96 1019.86 1019.78 1019.52 1019.25 1019.08 1018.80 1019.11 1019.18 1019.09 1019.27 1019.22 1018.97 1018.64 1018.34 1017.81 1017.62 1017.28 1016.81 1016.38 1015.76 1015.48 1015.22 1014.89 1014.22 1013.95 1013.65
1021.43 1021.22 1021.11 1020.82 1020.75 1020.73 1021.05 1020.83 1021.01 1020.68 1020.22 1020.02 1020.00 1020.44 1020.43 1020.37 1019.89 1019.71 1019.29 1018.94 1018.54 1018.29 1018.04 1017.72 1017.21 1016.85 1016.60 1016.13 1015.49 1014.77 1014.15 1014.06
1021.93 1021.84 1021.74 1021.58 1021.53 1021.59 1021.73 1022.05 1022.05 1022.05 1021.76 1021.46 1021.27 1021.14 1021.06 1020.88 1020.57 1020.10 1019.84 1019.46 1019.07 1018.83 1018.65 1018.21 1017.81 1017.46 1017.10 1016.84 1016.57 1016.04 1015.26 1014.86
1022.26 1022.46 1022.46 1022.36 1022.26 1022.24 1022.47 1022.74 1022.77 1022.63 1022.54 1022.22 1021.86 1021.51 1021.18 1021.06 1020.84 1020.64 1020.27 1019.84 1019.53 1019.25 1018.96 1018.69 1018.24 1017.75 1017.38 1017.00 1016.71 1016.50 1016.06 1015.16
1022.30 1022.78 1022.96 1022.84 1022.81 1022.66 1022.90 1023.04 1023.21 1023.10 1022.83 1022.74 1022.69 1022.71 1022.60 1022.32 1021.85 1021.33 1020.73 1020.19 1019.86 1019.44 1019.09 1018.76 1018.45 1018.21 1017.80 1017.47 1017.05 1016.85 1016.58 1016.03
1022.83 1023.16 1023.46 1023.37 1023.16 1023.34 1023.44 1023.57 1023.66 1023.53 1023.42 1023.44 1023.47 1023.41 1023.17 1022.72 1022.21 1021.67 1021.10 1020.54 1019.99 1019.46 1019.09 1018.71 1018.46 1018.27 1017.91 1017.59 1017.13 1016.84 1016.59 1016.29
1023.16 1023.75 1023.75 1023.80 1023.88 1024.00 1023.97 1024.08 1024.17 1023.93 1023.80 1023.75 1023.71 1023.65 1023.44 1023.13 1022.62 1022.18 1021.60 1020.97 1020.31 1019.70 1019.22 1018.89 1018.57 1018.27 1017.94 1017.55 1017.17 1016.84 1016.49 1016.21
1023.56 1023.96 1024.20 1024.24 1024.27 1024.18 1024.23 1024.48 1024.47 1024.20 1024.04 1023.89 1023.83 1023.70 1023.47 1023.24 1022.82 1022.39 1021.87 1021.24 1020.55 1020.01 1019.57 1019.17 1018.80 1018.19 1017.70 1017.29 1016.87 1016.41 1016.04 1015.85
1023.83 1024.36 1024.54 1024.53 1024.33 1024.44 1024.64 1024.73 1024.73 1024.56 1024.30 1024.06 1023.86 1023.62 1023.39 1023.10 1022.78 1022.34 1021.87 1021.36 1020.84 1020.17 1019.64 1019.22 1018.76 1018.22 1017.62 1016.99 1016.80 1016.43 1016.09 1015.72
1024.22 1024.71 1024.93 1024.81 1024.85 1024.94 1024.92 1024.94 1024.98 1024.74 1024.49 1024.25 1023.97 1023.67 1023.34 1023.04 1022.60 1022.29 1021.83 1021.26 1020.68 1020.21 1019.86 1019.51 1019.00 1018.57 1018.12 1017.71 1017.42 1017.10 1016.75 1016.45
1024.63 1025.06 1025.06 1025.23 1025.17 1025.10 1025.10 1025.14 1025.04 1024.81 1024.52 1024.28 1024.03 1023.79 1023.48 1023.14 1022.72 1022.34 1021.87 1021.39 1020.93 1020.53 1020.17 1019.86 1019.47 1019.01 1018.66 1018.34 1017.98 1017.69 1017.34 1017.10
1024.99 1025.33 1025.40 1025.41 1025.33 1025.42 1025.49 1025.29 1025.03 1024.76 1024.51 1024.33 1024.09 1023.84 1023.63 1023.34 1022.97 1022.60 1022.13 1021.63 1021.07 1020.66 1020.46 1020.16 1019.83 1019.47 1019.13 1018.73 1018.33 1018.05 1017.79 1017.60
1025.26 1025.51 1025.59 1025.59 1025.66 1025.74 1025.64 1025.35 1025.02 1024.71 1024.55 1024.52 1024.36 1024.04 1023.76 1023.44 1023.19 1022.78 1022.24 1021.84 1021.14 1020.90 1020.70 1020.37 1019.98 1019.62 1019.25 1018.96 1018.75 1018.48 1018.34 1018.18
Wind_Speed
8 9 7 8 6 8 10 6 4 4 4 2 2 2 2 1 5 1 2 4 1 2 3 2 3 8 4 8 9 6 6 3
9 9 9 7 10 9 7 4 5 6 3 2 2 3 3 3 4 7 5 2 0 3 1 1 3 6 10 9 4 10 8 4
9 7 10 12 12 11 10 7 8 5 5 3 4 5 4 4 3 3 1 3 2 4 4 4 5 7 7 6 7 7 6 5
8 11 10 11 9 10 9 11 8 6 5 5 4 4 3 6 6 6 6 4 4 4 4 5 3 1 4 6 4 6 5 6
9 6 8 7 7 7 10 8 9 7 5 4 4 3 4 6 5 6 6 5 4 4 4 5 5 6 6 7 6 4 4 6
7 6 6 6 7 9 8 8 9 8 7 7 7 6 7 9 9 9 14 13 13 9 6 6 6 4 6 5 4 5 7 4
6 7 7 8 9 10 12 12 12 12 12 10 11 11 9 8 9 9 13 13 13 10 8 8 9 7 7 7 5 4 4 3
7 9 11 11 11 13 14 12 15 12 7 5 6 8 9 8 8 9 12 9 11 9 8 9 9 7 8 8 8 6 3 4
6 7 7 10 12 15 14 15 13 10 7 5 4 5 6 6 7 9 10 8 10 9 6 7 8 7 8 9 6 6 3 8
5 7 7 9 10 11 13 12 12 9 8 4 4 3 3 3 4 7 7 8 9 9 7 7 6 5 5 6 5 4 3 5
5 5 6 6 10 10 10 9 10 8 6 4 3 3 3 4 6 6 7 8 8 6 6 6 7 6 5 5 4 5 3 3
5 5 5 7 7 9 10 9 7 7 7 6 7 4 4 4 4 4 6 7 7 7 7 5 5 4 6 5 5 4 3 4
7 6 5 5 6 7 6 7 7 6 7 6 4 4 3 3 4 7 6 7 7 8 7 7 6 4 5 5 6 5 3 3
8 5 5 6 6 6 6 7 5 6 6 6 5 5 5 5 5 5 5 4 5 6 8 6 6 6 6 6 6 5 5 4
9 7 5 6 6 6 6 5 5 6 6 6 5 4 4 5 5 4 6 4 4 7 6 7 5 6 6 6 5 5 4 4
7 6 6 6 7 7 5 5 6 6 5 6 6 6 3 3 3 4 4 3 4 5 6 6 7 7 7 8 6 7 8 7
9 7 5 6 6 4 5 6 5 6 6 5 6 6 6 5 7 5 4 5 5 6 6 6 7 7 8 8 6 7 7 7
7 5 6 4 4 4 6 4 4 5 6 5 5 5 6 6 5 6 6 6 6 6 6 6 6 6 6 6 5 5 6 5
6 5 5 4 4 5 3 4 4 5 6 6 6 5 6 6 5 5 6 5 6 5 5 6 5 5 6 5 5 6 7 6
6 6 5 5 4 2 2 4 5 5 5 6 6 6 6 6 6 6 6 7 7 6 5 5 6 6 6 6 6 6 6 7
Wind_Direction
36 28 26 23 24 18 12 21 11 67 74 57 58 82 89 226 265 203 113 112 271 356 266 353 350 21 30 346 353 313 276 262
38 40 27 18 35 22 2 3 38 67 73 82 43 27 359 16 339 353 5 7 12 301 285 343 346 15 14 9 357 287 283 265
40 33 45 47 39 14 16 8 47 39 55 13 28 26 15 334 23 15 279 351 324 322 356 352 40 49 37 320 301 299 289 275
54 39 37 44 44 24 10 23 22 24 36 11 37 32 330 27 17 11 8 358 4 358 358 347 357 303 176 227 253 267 305 302
59 50 47 27 34 34 25 34 17 13 2 4 42 29 39 36 12 357 351 344 324 340 338 323 311 303 270 222 241 277 265 224
61 53 56 39 47 46 43 32 36 26 5 20 28 30 44 33 24 17 13 15 5 354 353 1 349 317 347 347 313 258 250 255
68 75 73 58 57 52 41 30 33 35 30 44 32 29 34 31 24 21 12 13 16 14 15 4 353 14 15 358 335 345 326 332
42 46 53 56 51 52 50 42 30 27 19 34 44 32 28 28 27 23 14 16 16 13 6 4 358 13 10 4 351 353 334 343
44 51 44 58 50 51 42 41 30 29 20 358 21 47 18 17 17 10 9 9 13 14 6 0 2 8 360 359 336 351 331 357
58 45 52 55 62 61 56 50 42 34 27 360 18 346 21 12 359 5 5 4 7 8 353 353 354 350 355 357 357 326 310 359
101 70 61 56 61 62 61 56 50 43 34 21 356 355 351 357 3 1 349 356 358 353 352 346 345 351 346 336 333 347 318 310
126 108 72 71 67 74 72 61 52 43 25 28 31 25 4 333 321 322 332 342 337 338 342 339 339 336 335 325 331 313 318 300
142 120 111 91 81 75 75 70 53 42 45 43 37 23 334 312 329 339 338 334 332 334 336 335 337 331 313 304 313 316 307 298
114 128 111 94 80 85 77 73 49 35 38 34 38 22 344 346 335 333 329 318 314 329 334 329 326 321 320 316 307 299 289 263
135 134 116 90 87 85 79 55 38 21 28 23 13 354 341 337 328 315 327 326 328 330 331 329 326 317 317 320 316 311 317 310
131 124 114 99 80 71 69 48 34 23 24 12 3 360 344 316 305 317 314 308 305 307 329 333 331 334 337 344 344 349 349 347
127 122 118 94 91 83 62 47 32 24 19 15 2 354 356 339 337 333 320 320 334 341 339 345 350 351 347 347 355 2 9 11
126 134 113 100 90 64 48 50 30 13 6 11 7 352 352 347 340 348 342 335 346 349 350 352 350 345 348 356 2 1 20 7
135 126 106 101 74 57 78 49 40 13 20 6 1 350 355 350 353 345 349 338 341 353 358 354 359 359 359 8 10 13 25 20
135 123 113 86 62 60 85 31 27 14 18 12 357 356 358 357 357 340 346 353 2 12 7 2 6 8 6 18 18 14 21 14